Regional Weather Roundup
Issued by NWS Charleston, WV

Home | Current Version | Previous Version | Graphics & Text | Print | Product List | Glossary On
Versions: 1 2 3 4 5 6 7 8 9 10 11 12 13 14 15 16 17 18 19 20 21 22 23 24 25 26 27 28 29 30 31 32 33 34 35 36 37 38 39 40 41 42 43 44 45 46 47 48 49 50
831
ASUS41 KRLX 250310
RWRRLX
West Virginia Regional Weather Roundup
National Weather Service Charleston WV
1100 PM EDT MON APR 24 2017

Note: "fair" indicates few or no clouds below 12,000 feet with no
significant weather and/or obstructions to visibility.

WVZ003-250400-
Northern Panhandle of West Virginia

CITY           SKY/WX    TMP DP  RH WIND       PRES   REMARKS
WHEELING       CLOUDY    53  44  71 E10       29.94F
$$

WVZ009-250400-
Northwest West Virginia

CITY           SKY/WX    TMP DP  RH WIND       PRES   REMARKS
PARKERSBURG    CLOUDY    56  46  69 E6        29.92S
$$

WVZ006-250400-
Western West Virginia

CITY           SKY/WX    TMP DP  RH WIND       PRES   REMARKS
HUNTINGTON     CLOUDY    57  52  83 NE5       29.84S
$$

WVZ015-250400-
West Central West Virginia

CITY           SKY/WX    TMP DP  RH WIND       PRES   REMARKS
CHARLESTON     CLOUDY    59  51  75 NE3       29.84S
$$

WVZ022-031-250400-
North Central West Virginia

CITY           SKY/WX    TMP DP  RH WIND       PRES   REMARKS
CLARKSBURG     CLOUDY    52  45  77 E9        29.92F
MORGANTOWN     CLOUDY    52  44  74 E8        29.95F
$$

WVZ025-035-042-045-250400-
Southern West Virginia

CITY           SKY/WX    TMP DP  RH WIND       PRES   REMARKS
BECKLEY        CLOUDY    51  47  86 E9        29.86F
LOGAN          CLOUDY    57  52  82 NE3       29.83S
BLUEFIELD      LGT RAIN  47  46  97 E10       29.84F
LEWISBURG      LGT RAIN  49  46  90 NE10      29.88F
$$

WVZ047-250400-
Northern Mountains of West Virginia

CITY           SKY/WX    TMP DP  RH WIND       PRES   REMARKS
ELKINS         CLOUDY    50  42  74 VRB5      29.93F
$$

WVZ052-250400-
Eastern Panhandle of West Virginia

CITY           SKY/WX    TMP DP  RH WIND       PRES   REMARKS
MARTINSBURG    CLOUDY    51  47  86 N6        30.02F
PETERSBURG     CLOUDY    51  48  91 N3        30.02F
$$




USA.gov is the U.S. government's official web portal to all federal, state and local government web resources and services.